User: anonymous   Login
Location: Azul
(36.7830°S, 59.8500°W)
Time: 21:46:50
(UTC-03:00)
Language:

SO-50 - Orbit

View from above orbital plane
View from above orbital plane
View from above satellite
View from above satellite

Ground track
Ground track

The orbit data is extracted from the following two-line orbital elements,

1 27607U 02058C   21296.51073681  .00000133  00000-0  39507-4 0  9993
2 27607  64.5546 306.7337 0056645 344.4148  15.5207 14.75807928 13619
Epoch (UTC): 23 October 2021 12:15:27
Eccentricity: 0.0056645
inclination: 64.5546°
perigee height: 603 km
apogee height: 682 km
right ascension of ascending node: 306.7337°
argument of perigee: 344.4148°
revolutions per day: 14.75807928
mean anomaly at epoch: 15.5207°
orbit number at epoch: 1361

The dashed part of the orbit path shows where the satellite is in the earth's shadow,  

DLR